User: anonymous   Login
Location: Unspecified
(0.0000°N, 0.0000°E)
Time: 20:38:04
(UTC+00:00)
Language:

NOSS 3-3 (A) - Orbit

View from above orbital plane
View from above orbital plane
View from above satellite
View from above satellite

Ground track
Ground track

The orbit data is extracted from the following two-line orbital elements,

1 28537U 05004A   18052.75220409 0.00000000  00000-0  00000-0 0    02
2 28537  63.4321 272.2332 0291214 357.8261   2.1739 13.40749717    03
Epoch (UTC): 21 February 2018 18:03:10
Eccentricity: 0.0291214
inclination: 63.4321°
perigee height: 888 km
apogee height: 1324 km
right ascension of ascending node: 272.2332°
argument of perigee: 357.8261°
revolutions per day: 13.40749717
mean anomaly at epoch: 2.1739°
orbit number at epoch: 0

The dashed part of the orbit path shows where the satellite is in the earth's shadow,  

DLR